STARLINK-3765, 52295

Orbit data source: Space-Track

STARLINK-3765, 52295 is a payload satellite owned by SpaceX/Seattle (US) in LEO that was launched on Thu, 21 Apr 2022 UTC via an FALCON 9 launch vehicle from the Air Force Eastern Test Range (AFETR). Payload-class satellites include a variety of spacecraft equipped with specific instruments for various scientific and technological missions. These include communications satellites like Starlink; space stations such as the ISS; scientific satellites like the Hubble; Earth observation satellites from companies like Planet Labs, Umbra, and HawkEye 360; GPS; miniature CubeSats for education and research; and military/defense satellites.

Loading next visibility...
Identifier
52295, 2022-041AL
Orbit
LEO
Country
Flag of USUS
Related business
Manufacturer
SpaceX/Seattle
Mission
Operational Commercial Communications
Bus & Motor
STARLINK, Unknown motor
Mass
297 kg wet, ~275 kg dry
Launch date (UTC)
2022-04-21 (4 years ago)
Launch vehicle
FALCON 9
Launch site
Air Force Eastern Test Range (AFETR)
Object type
Payload
Rocket body
Debris
Shape & HBR
Box + 1 Pan, 10.1 m
Radar Cross Section
11.087 m², Large (>1 m²)

Expand to show TLE details & history
Last TLE update: 3 hours ago

TLE from 3 hours ago
0 STARLINK-3765
1 52295U 22041AL  26254.83334491  .00326890  00000-0  10632-2 0  9998
2 52295  53.1595 323.3970 0000968  76.9455 130.6413 15.89355797  5955
Epoch: 2026-09-11T20:00Z
TLE epoch observation values (Epoch: 2026-09-11T20:00:01.000Z)
Latitude
-21.95311°
Longitude
-129.98394°
Altitude
310.726 km
Speed
7.721 km/s
True Right ascension
10h 43m 29s
True Declination
-21° 49' 34"
Sunlit
Object was in daylight at epoch
Visualization orbit readout
Latitude
Unknown
Longitude
Unknown
Altitude
Unknown
Speed
Unknown
Apparent Right ascension
Unknown
Apparent Declination
Unknown
Sunlit
N/A
Visualization observer readout
Local Sidereal Time
15:14:13
Azimuth
Unknown
Elevation
Unknown
Doppler factor
Unknown
Orbital elements
Apogee altitude
304.998 km
Perigee altitude
303.704 km
Semi-major axis
6,682.488 km
Eccentricity
0.0001
Inclination
53.1595°
RAAN
323.397°
Arg. of periapsis
76.9455°
True anomaly
130.64972°
Mean anomaly
130.6413°
Eccentric anomaly
130.64551°
Mean motion
3.97316 °/min
Orbital period
90.61 mins
BSTAR
0.0010632
Loading maneuver chart data...
Computing Atmospheric mass density...

Documentation

Showing up to 5 results
|